Retour au catalogue

THORAD DELTA 1 DEB

ActifSSO
NORAD 10392·DEBRIS·🇺🇸 United States

Lancé Nov 15, 1974 depuis Vandenberg Space Force Base

Loading…

Prochains Passages (prochaines 24 heures)

TLE

FraisSource: Space-Track

Époque: Sep 14, 2026, 01:02 UTC

1 10392U 74089EH  26257.04347519 -.00000035  00000-0  42772-4 0  9993
2 10392 101.2056 293.7431 0050508  91.1308 299.0822 12.60139039385980

Suivez THORAD DELTA 1 DEB en temps réel avec AllMySat

Download on the App Store